This is the latest recevied weather packets stored in our database for station/object KG5APU. If no packets are shown the sender has not sent any weather packets the latest 10 day(s).
| Time | Temp. | Humidity | Pressure | Rain* | Wind** | Luminosity | Snow |
|---|---|---|---|---|---|---|---|
| 1777801215 | 13.33° C | 76% | 1020.9 hPa | 0 mm | - | 0 W/m² | - |
| 1777800615 | 13.89° C | 75% | 1020.8 hPa | 0 mm | - | 0 W/m² | - |
| 1777800013 | 13.89° C | 72% | 1020.8 hPa | 0 mm | - | 0 W/m² | - |
| 1777799412 | 14.44° C | 71% | 1020.8 hPa | 0 mm | - | 0 W/m² | - |
| 1777798809 | 15° C | 70% | 1020.8 hPa | 0 mm | - | 0 W/m² | - |
| 1777798209 | 15° C | 70% | 1020.5 hPa | 0 mm | - | 0 W/m² | - |
| 1777797609 | 15.56° C | 68% | 1020.7 hPa | 0 mm | - | 0 W/m² | - |
| 1777797009 | 16.11° C | 67% | 1020.5 hPa | 0 mm | - | 0 W/m² | - |
| 1777796409 | 16.11° C | 67% | 1020.7 hPa | 0 mm | - | 0 W/m² | - |
| 1777795807 | 16.11° C | 66% | 1020.8 hPa | 0 mm | - | 0 W/m² | - |
| 1777795206 | 16.67° C | 65% | 1020.9 hPa | 0 mm | - | 0 W/m² | - |
| 1777794605 | 16.67° C | 64% | 1020.8 hPa | 0 mm | - | 0 W/m² | - |
| 1777794001 | 16.11° C | 66% | 1020.6 hPa | 0 mm | - | 0 W/m² | - |
| 1777793397 | 16.11° C | 67% | 1020.8 hPa | 0 mm | - | 0 W/m² | - |
| 1777792791 | 16.11° C | 67% | 1020.9 hPa | 0 mm | - | 0 W/m² | - |
| 1777792189 | 16.11° C | 66% | 1020.8 hPa | 0 mm | - | 0 W/m² | - |
| 1777791585 | 16.11° C | 66% | 1021 hPa | 0 mm | - | 0 W/m² | - |
| 1777790985 | 16.67° C | 65% | 1021.2 hPa | 0 mm | - | 0 W/m² | - |
| 1777790380 | 16.67° C | 64% | 1021 hPa | 0 mm | - | 0 W/m² | - |
| 1777789776 | 16.67° C | 64% | 1020.9 hPa | 0 mm | - | 0 W/m² | - |
| 1777789172 | 16.67° C | 64% | 1021 hPa | 0 mm | - | 0 W/m² | - |
| 1777788570 | 16.67° C | 64% | 1020.9 hPa | 0 mm | - | 0 W/m² | - |
| 1777787966 | 16.67° C | 65% | 1020.8 hPa | 0 mm | - | 0 W/m² | - |
| 1777787362 | 17.22° C | 66% | 1020.9 hPa | 0 mm | - | 0 W/m² | - |
| 1777786762 | 17.22° C | 66% | 1020.9 hPa | 0 mm | - | 0 W/m² | - |
* Rain latest hour (hover to see other rain measurements)
** Current wind speed in m/s (hover to see current wind gust speed)